DW0999 Weather Reports


time (UTC)temp
F
wind
direction
speed
knots
gust
knots
rain 1hr
in
rain 24hr
in
rain mn
in
humidity
%
barometer
mb
20200407043701 36 336 0.0 0.0 0.00 0.00 0.00 83 1027.7
20200407042202 37 336 0.0 0.0 0.00 0.00 0.00 83 1027.6
20200407040702 37 336 0.0 0.0 0.00 0.00 0.00 82 1027.5
20200407035202 37 336 0.0 0.0 0.00 0.00 0.00 82 1027.5
20200407033702 38 336 0.0 0.0 0.00 0.00 0.00 81 1027.3
20200407032202 38 336 0.0 0.0 0.00 0.00 0.00 81 1027.3
20200407030702 38 336 0.0 0.0 0.00 0.00 0.00 80 1027.2
20200407025201 38 336 0.0 0.0 0.00 0.00 0.00 80 1027.1
20200407023701 39 336 0.0 0.0 0.00 0.00 0.00 80 1026.8
20200407022200 39 336 0.0 0.0 0.00 0.00 0.00 79 1026.7
20200407020700 39 336 0.0 0.0 0.00 0.00 0.00 78 1026.6
20200407015200 40 336 0.0 0.0 0.00 0.00 0.00 77 1026.6
20200407013700 40 336 0.0 0.0 0.00 0.00 0.00 77 1026.4
20200407012200 40 336 0.0 0.0 0.00 0.00 0.00 76 1026.4
20200407010654 41 336 0.0 0.0 0.00 0.00 0.00 75 1026.2
20200407005157 41 336 0.0 0.0 0.00 0.00 0.00 74 1026.2
20200407003655 42 336 0.0 0.0 0.00 0.00 0.00 73 1026.1
20200407002154 43 336 0.0 0.0 0.00 0.00 0.00 71 1026.0
20200407000654 43 336 0.0 0.0 0.00 0.00 0.00 70 1026.0
20200406235154 43 336 0.0 0.9 0.00 0.00 0.00 71 1025.9
20200406233654 43 336 0.0 0.0 0.00 0.00 0.00 71 1025.9
20200406232154 43 336 0.0 0.0 0.00 0.00 0.00 71 1025.7
20200406230653 43 336 0.0 0.0 0.00 0.00 0.00 71 1025.6
20200406225153 44 336 0.0 0.0 0.00 0.00 0.00 70 1025.5
20200406223652 45 336 0.0 0.0 0.00 0.00 0.00 68 1025.2
20200406222153 46 336 0.0 0.0 0.00 0.00 0.00 67 1025.1
20200406220651 46 336 0.0 2.6 0.00 0.00 0.00 66 1025.1
20200406215152 46 337 0.0 0.0 0.00 0.00 0.00 66 1024.9
20200406213649 46 337 0.0 0.0 0.00 0.00 0.00 65 1024.8
20200406212150 47 337 0.0 0.0 0.00 0.00 0.00 64 1024.7
20200406210650 48 337 0.0 0.0 0.00 0.00 0.00 62 1024.7
20200406205150 49 337 0.0 0.0 0.00 0.00 0.00 60 1024.7
20200406203649 51 337 0.0 0.0 0.00 0.00 0.00 56 1024.6
20200406202149 51 337 0.0 0.0 0.00 0.00 0.00 55 1024.5
20200406200648 52 337 0.0 0.0 0.00 0.00 0.00 54 1024.5
20200406195148 53 337 0.0 1.7 0.00 0.00 0.00 51 1024.4
20200406193650 54 337 0.0 0.9 0.00 0.00 0.00 50 1024.2
20200406192147 54 337 0.0 0.0 0.00 0.00 0.00 51 1024.0
20200406190646 55 337 0.0 0.0 0.00 0.00 0.00 50 1023.9
20200406185145 56 337 0.0 0.0 0.00 0.00 0.00 49 1023.6
20200406183646 58 337 0.0 0.0 0.00 0.00 0.00 46 1023.5
20200406182146 60 337 0.0 0.0 0.00 0.00 0.00 43 1023.2
20200406180645 62 337 0.0 0.9 0.00 0.00 0.00 40 1022.9
20200406175145 63 337 0.0 1.7 0.00 0.00 0.00 35 1022.8
20200406173645 65 337 0.0 2.6 0.00 0.00 0.00 33 1022.7
20200406172144 66 337 1.7 4.3 0.00 0.00 0.00 32 1022.6
20200406170644 67 330 1.7 4.3 0.00 0.00 0.00 30 1022.5
20200406165142 67 333 1.7 5.2 0.00 0.00 0.00 30 1022.4
20200406163643 68 321 3.5 5.2 0.00 0.00 0.00 30 1022.3
20200406162141 69 0 1.7 6.1 0.00 0.00 0.00 30 1022.3
20200406160640 69 292 3.5 6.1 0.00 0.00 0.00 27 1022.3
20200406155140 69 345 3.5 7.8 0.00 0.00 0.00 29 1022.3
20200406153638 69 261 3.5 6.1 0.00 0.00 0.00 28 1022.2
20200406152138 70 331 2.6 6.1 0.00 0.00 0.00 28 1022.3
20200406150639 71 347 2.6 8.7 0.00 0.00 0.00 28 1022.4
20200406145138 70 271 3.5 10.4 0.00 0.00 0.00 27 1022.4
20200406143638 71 343 0.9 8.7 0.00 0.00 0.00 29 1022.2
20200406142138 71 334 2.6 6.1 0.00 0.00 0.00 28 1022.2
20200406140638 70 1 2.6 7.8 0.00 0.00 0.00 30 1022.2
20200406135136 71 0 1.7 8.7 0.00 0.00 0.00 29 1022.3
20200406133635 70 350 3.5 6.1 0.00 0.00 0.00 29 1022.3
20200406132130 69 336 1.7 6.1 0.00 0.00 0.00 27 1022.3
20200406130631 71 35 0.0 8.7 0.00 0.00 0.00 30 1022.3
20200406125129 69 7 0.0 6.1 0.00 0.00 0.00 30 1022.4
20200406123627 68 340 2.6 7.8 0.00 0.00 0.00 32 1022.4
20200406122127 68 327 2.6 9.6 0.00 0.00 0.00 34 1022.5
20200406120626 69 324 4.3 6.1 0.00 0.00 0.00 33 1022.4
20200406115125 68 283 1.7 6.1 0.00 0.00 0.00 34 1022.4
20200406113626 67 319 4.3 7.8 0.00 0.00 0.00 34 1022.4
20200406112125 66 305 2.6 7.8 0.00 0.00 0.00 36 1022.3
20200406110624 66 199 0.0 4.3 0.00 0.00 0.00 40 1022.4
20200406105124 64 321 1.7 4.3 0.00 0.00 0.00 43 1022.5
20200406103623 63 133 1.7 3.5 0.00 0.00 0.00 43 1022.5
20200406102124 61 162 1.7 3.5 0.00 0.00 0.00 46 1022.5
20200406100623 60 110 0.9 4.3 0.00 0.00 0.00 47 1022.5
20200406095122 59 85 2.6 5.2 0.00 0.00 0.00 50 1022.6
20200406093623 57 113 1.7 5.2 0.00 0.00 0.00 53 1022.7
20200406090619 54 128 3.5 7.8 0.00 0.00 0.00 55 1022.7
20200406085119 53 134 0.9 6.1 0.00 0.00 0.00 58 1022.8
20200406083618 52 103 2.6 5.2 0.00 0.00 0.00 58 1022.5
20200406082118 51 107 1.7 5.2 0.00 0.00 0.00 60 1022.6
20200406080617 49 274 1.7 5.2 0.00 0.00 0.00 60 1022.5
20200406075117 48 114 2.6 5.2 0.00 0.00 0.00 62 1022.3
20200406073615 47 109 2.6 5.2 0.00 0.00 0.00 64 1022.2
20200406072114 46 113 3.5 4.3 0.00 0.00 0.00 64 1022.2
20200406070614 44 109 1.7 3.5 0.00 0.00 0.00 70 1022.0
20200406065114 42 183 1.7 3.5 0.00 0.00 0.00 71 1021.9
20200406063612 40 188 0.0 2.6 0.00 0.00 0.00 74 1021.8
20200406062113 39 190 0.0 1.7 0.00 0.00 0.00 76 1021.6
20200406060610 38 190 0.0 1.7 0.00 0.00 0.00 78 1021.4
20200406055111 37 107 0.0 0.0 0.00 0.00 0.00 77 1021.2
20200406053612 36 107 0.0 0.0 0.00 0.00 0.00 78 1020.9
20200406052110 36 107 0.0 0.0 0.00 0.00 0.00 79 1020.8
20200406050610 35 107 0.0 0.0 0.00 0.00 0.00 78 1020.6
20200406045108 36 107 0.0 0.0 0.00 0.00 0.00 77 1020.5